When you browse on this site, cookies collect data to enhance your experience and personalize the content and advertising you see.
Visit our Privacy Policy to learn more. By continuing to use the site, you agree to this use of cookies and data.
  • In Portugal
  • List of Countries
  • For 7 days
  • Water Temperature
  • Satellite Maps
  • Weather Map
  • Weather Widgets
  • user-avatar
    Login

    Hourly Weather Ayalizimahi

    Today, 25 June, Tuesday

    Time Temperature Precipitation Wind Pressure Humidity
    00:00 +21°C° 0 mm 1 mps 670 mmHg 67%
    01:00 +21°C° 0.1 mm 1 mps 670 mmHg 68%
    02:00 +19°C° 0.1 mm 2 mps 670 mmHg 69%
    03:00 +19°C° 0 mm 2 mps 670 mmHg 71%
    04:00 +20°C° 0 mm 2 mps 670 mmHg 68%
    05:00 +22°C° 0 mm 1 mps 671 mmHg 65%
    06:00 +23°C° 0 mm 1 mps 671 mmHg 62%
    07:00 +25°C° 0 mm 2 mps 671 mmHg 59%
    08:00 +26°C° 0 mm 2 mps 672 mmHg 56%
    09:00 +28°C° 0 mm 2 mps 672 mmHg 52%
    10:00 +28°C° 0.4 mm 3 mps 672 mmHg 54%
    11:00 +28°C° 0.4 mm 3 mps 672 mmHg 55%
    12:00 +29°C° 0.4 mm 3 mps 672 mmHg 56%
    13:00 +28°C° 0.6 mm 3 mps 672 mmHg 57%
    14:00 +28°C° 0.6 mm 2 mps 672 mmHg 58%
    15:00 +28°C° 0.6 mm 2 mps 672 mmHg 59%
    16:00 +27°C° 0.3 mm 2 mps 672 mmHg 61%
    17:00 +27°C° 0.3 mm 1 mps 672 mmHg 63%
    18:00 +26°C° 0.3 mm 1 mps 671 mmHg 65%
    19:00 +25°C° 0.3 mm 2 mps 671 mmHg 68%
    20:00 +24°C° 0.3 mm 2 mps 671 mmHg 71%
    21:00 +21°C° 0.3 mm 2 mps 671 mmHg 74%
    22:00 +21°C° 0 mm 2 mps 671 mmHg 73%
    23:00 +21°C° 0 mm 2 mps 671 mmHg 72%

    Tomorrow, 26 June, Wednesday

    Time Temperature Precipitation Wind Pressure Humidity
    00:00 +20°C° 0 mm 2 mps 670 mmHg 71%
    01:00 +20°C° 0.2 mm 2 mps 670 mmHg 71%
    02:00 +20°C° 0.2 mm 2 mps 670 mmHg 71%
    03:00 +19°C° 0.2 mm 2 mps 670 mmHg 72%
    04:00 +20°C° 0.2 mm 2 mps 671 mmHg 70%
    05:00 +21°C° 0.2 mm 2 mps 671 mmHg 68%
    06:00 +21°C° 0.2 mm 2 mps 671 mmHg 66%
    07:00 +24°C° 0.6 mm 3 mps 672 mmHg 64%
    08:00 +25°C° 0.6 mm 3 mps 672 mmHg 61%
    09:00 +26°C° 0.6 mm 3 mps 673 mmHg 59%
    10:00 +26°C° 1.1 mm 4 mps 673 mmHg 61%
    11:00 +26°C° 1.1 mm 4 mps 673 mmHg 63%
    12:00 +26°C° 1.1 mm 4 mps 673 mmHg 66%
    13:00 +25°C° 1.1 mm 4 mps 672 mmHg 72%
    14:00 +24°C° 1.1 mm 3 mps 672 mmHg 78%
    15:00 +21°C° 1.1 mm 2 mps 672 mmHg 84%
    16:00 +21°C° 0.4 mm 2 mps 672 mmHg 84%
    17:00 +21°C° 0.4 mm 2 mps 671 mmHg 84%
    18:00 +21°C° 0.4 mm 2 mps 671 mmHg 84%
    19:00 +21°C° 0.4 mm 1 mps 671 mmHg 87%
    20:00 +20°C° 0.4 mm 1 mps 671 mmHg 91%
    21:00 +20°C° 0.4 mm 1 mps 671 mmHg 94%
    22:00 +19°C° 0.7 mm 1 mps 671 mmHg 93%
    23:00 +19°C° 0.7 mm 1 mps 671 mmHg 92%

    Day after tomorrow, 27 June, Thursday

    Time Temperature Precipitation Wind Pressure Humidity
    00:00 +19°C° 0.7 mm 1 mps 671 mmHg 91%
    01:00 +18°C° 0.1 mm 1 mps 670 mmHg 90%
    02:00 +18°C° 0.1 mm 1 mps 670 mmHg 88%
    03:00 +15°C° 0.1 mm 0 mps 670 mmHg 87%
    04:00 +16°C° 0 mm 0 mps 670 mmHg 84%
    05:00 +17°C° 0 mm 0 mps 670 mmHg 81%
    06:00 +18°C° 0 mm 0 mps 670 mmHg 78%
    07:00 +21°C° 0.1 mm 1 mps 670 mmHg 72%
    08:00 +21°C° 0.1 mm 2 mps 670 mmHg 65%
    09:00 +23°C° 0.1 mm 2 mps 671 mmHg 59%
    10:00 +22°C° 0.2 mm 3 mps 670 mmHg 58%
    11:00 +22°C° 0.2 mm 3 mps 670 mmHg 57%
    12:00 +24°C° 0.2 mm 3 mps 670 mmHg 56%
    13:00 +22°C° 0.4 mm 3 mps 670 mmHg 59%
    14:00 +23°C° 0.4 mm 2 mps 669 mmHg 62%
    15:00 +21°C° 0.4 mm 2 mps 669 mmHg 64%
    16:00 +21°C° 0.2 mm 2 mps 668 mmHg 66%
    17:00 +21°C° 0.2 mm 2 mps 668 mmHg 68%
    18:00 +20°C° 0.2 mm 2 mps 668 mmHg 70%
    19:00 +20°C° 0.2 mm 1 mps 667 mmHg 74%
    20:00 +19°C° 0.2 mm 1 mps 667 mmHg 78%
    21:00 +18°C° 0.2 mm 1 mps 667 mmHg 83%
    22:00 +16°C° 0 mm 1 mps 667 mmHg 83%
    23:00 +16°C° 0 mm 1 mps 666 mmHg 83%

    28 June, Friday

    Time Temperature Precipitation Wind Pressure Humidity
    00:00 +16°C° 0 mm 1 mps 666 mmHg 84%
    01:00 +16°C° 0 mm 1 mps 666 mmHg 84%
    02:00 +16°C° 0 mm 1 mps 665 mmHg 84%
    03:00 +15°C° 0 mm 1 mps 665 mmHg 85%
    04:00 +16°C° 0 mm 1 mps 665 mmHg 81%
    05:00 +18°C° 0 mm 1 mps 665 mmHg 78%
    06:00 +18°C° 0 mm 2 mps 665 mmHg 75%
    07:00 +19°C° 0 mm 2 mps 665 mmHg 69%
    08:00 +21°C° 0 mm 3 mps 666 mmHg 64%
    09:00 +22°C° 0 mm 3 mps 666 mmHg 58%
    10:00 +24°C° 0.1 mm 3 mps 666 mmHg 57%
    11:00 +23°C° 0.1 mm 4 mps 665 mmHg 55%
    12:00 +25°C° 0.1 mm 4 mps 665 mmHg 53%
    13:00 +25°C° 0.2 mm 4 mps 665 mmHg 54%
    14:00 +25°C° 0.2 mm 4 mps 664 mmHg 54%
    15:00 +23°C° 0.2 mm 4 mps 664 mmHg 54%
    16:00 +24°C° 0.2 mm 3 mps 664 mmHg 59%
    17:00 +23°C° 0.2 mm 2 mps 664 mmHg 63%
    18:00 +21°C° 0.2 mm 2 mps 663 mmHg 68%
    19:00 +20°C° 0 mm 2 mps 663 mmHg 71%
    20:00 +20°C° 0 mm 1 mps 663 mmHg 74%
    21:00 +19°C° 0 mm 1 mps 663 mmHg 77%
    22:00 +18°C° 0 mm 1 mps 663 mmHg 76%
    23:00 +18°C° 0 mm 1 mps 663 mmHg 75%

    29 June, Saturday

    Time Temperature Precipitation Wind Pressure Humidity
    00:00 +18°C° 0 mm 1 mps 663 mmHg 74%
    01:00 +18°C° 0 mm 1 mps 663 mmHg 74%
    02:00 +18°C° 0 mm 1 mps 663 mmHg 73%
    03:00 +18°C° 0 mm 1 mps 663 mmHg 73%
    04:00 +19°C° 0 mm 1 mps 663 mmHg 71%
    05:00 +20°C° 0 mm 1 mps 663 mmHg 70%
    06:00 +18°C° 0 mm 0 mps 663 mmHg 68%
    07:00 +21°C° 0 mm 1 mps 664 mmHg 67%
    08:00 +22°C° 0 mm 1 mps 664 mmHg 66%
    09:00 +23°C° 0 mm 2 mps 664 mmHg 64%
    10:00 +22°C° 0.4 mm 3 mps 664 mmHg 64%
    11:00 +24°C° 0.4 mm 3 mps 664 mmHg 64%
    12:00 +23°C° 0.4 mm 4 mps 664 mmHg 64%
    13:00 +22°C° 0.5 mm 3 mps 664 mmHg 67%
    14:00 +22°C° 0.5 mm 3 mps 664 mmHg 70%
    15:00 +21°C° 0.5 mm 3 mps 663 mmHg 73%
    16:00 +20°C° 0.1 mm 2 mps 663 mmHg 74%
    17:00 +20°C° 0.1 mm 2 mps 663 mmHg 76%
    18:00 +20°C° 0.1 mm 2 mps 663 mmHg 77%
    19:00 +19°C° 0 mm 2 mps 664 mmHg 81%
    20:00 +18°C° 0 mm 2 mps 664 mmHg 85%
    21:00 +17°C° 0 mm 3 mps 665 mmHg 88%
    22:00 +17°C° 0.2 mm 3 mps 664 mmHg 89%
    23:00 +17°C° 0.2 mm 3 mps 664 mmHg 90%

    30 June, Sunday

    Time Temperature Precipitation Wind Pressure Humidity
    00:00 +16°C° 0.2 mm 2 mps 664 mmHg 91%
    01:00 +16°C° 1.2 mm 2 mps 664 mmHg 92%
    02:00 +15°C° 1.2 mm 2 mps 664 mmHg 93%
    03:00 +15°C° 1.2 mm 2 mps 664 mmHg 93%
    04:00 +15°C° 0.1 mm 2 mps 664 mmHg 91%
    05:00 +15°C° 0.1 mm 1 mps 664 mmHg 88%
    06:00 +16°C° 0.1 mm 1 mps 664 mmHg 86%
    07:00 +16°C° 0 mm 1 mps 664 mmHg 83%
    08:00 +17°C° 0 mm 2 mps 664 mmHg 81%
    09:00 +17°C° 0 mm 2 mps 664 mmHg 78%
    10:00 +17°C° 0 mm 2 mps 664 mmHg 79%
    11:00 +17°C° 0 mm 2 mps 664 mmHg 80%
    12:00 +17°C° 0 mm 2 mps 664 mmHg 81%
    13:00 +17°C° 0 mm 2 mps 664 mmHg 82%
    14:00 +17°C° 0 mm 2 mps 664 mmHg 83%
    15:00 +17°C° 0 mm 2 mps 664 mmHg 84%
    16:00 +17°C° 0.3 mm 2 mps 664 mmHg 87%
    17:00 +16°C° 0.3 mm 3 mps 664 mmHg 90%
    18:00 +14°C° 0.3 mm 3 mps 664 mmHg 94%
    19:00 +14°C° 1.9 mm 3 mps 665 mmHg 94%
    20:00 +13°C° 1.9 mm 3 mps 665 mmHg 95%
    21:00 +13°C° 1.9 mm 3 mps 665 mmHg 95%
    22:00 +13°C° 3 mm 3 mps 665 mmHg 95%
    23:00 +13°C° 3 mm 2 mps 665 mmHg 95%
    Show more